Simultaneous Nadir Overpasses (SNOs) Predictions

Prediction of SNOs between NOAA-20 and PACE Satellite Orbit:

Table of predicted SNOs for the next 14.0 days since TLE Epoch: 6/8/2024
Index Date (NOAA-20) Time (NOAA-20) Lat,Lon (NOAA-20) SZA (NOAA-20 ) Date (PACE) Time (PACE) Lat,Lon (PACE) SZA (PACE ) Distance(km) Time Diff (sec)
1 06/08/2024 08:05:03 79.95, 20.67 59.29 06/08/2024 08:04:58 79.96, 20.60 59.30 1.55 5
2 06/10/2024 11:42:17 -81.31, 110.91 115.29 06/10/2024 11:43:30 -81.94, 110.96 115.20 70.43 73
3 06/10/2024 12:31:22 79.92, -45.63 59.08 06/10/2024 12:31:04 79.93, -45.73 59.10 2.14 18
4 06/12/2024 16:07:01 -80.05, 79.15 120.80 06/12/2024 16:08:04 -80.06, 79.02 120.81 2.44 63
5 06/12/2024 16:57:41 79.90,-111.96 58.91 06/12/2024 16:57:09 79.89,-111.96 58.92 0.34 32
6 06/14/2024 20:33:22 -80.09, 12.18 120.82 06/14/2024 20:34:10 -80.08, 12.32 120.87 2.93 48
7 06/14/2024 21:23:59 79.84,-178.05 58.72 06/14/2024 21:23:13 79.84,-178.11 58.75 1.27 46
8 06/17/2024 00:59:39 -80.01, -53.62 121.02 06/17/2024 01:00:13 -80.02, -53.71 121.03 1.84 34
9 06/17/2024 01:50:19 79.86, 115.25 58.68 06/17/2024 01:49:18 79.86, 115.26 58.71 0.37 61
10 06/19/2024 05:25:59 -80.03,-120.36 121.02 06/19/2024 05:26:17 -80.02,-120.23 121.05 2.64 18
11 06/19/2024 06:14:44 75.20, 72.28 52.23 06/19/2024 06:13:32 74.85, 69.96 52.11 77.25 72



Historial Predications of SNOs between NOAA-20 and PACE
